Regional Weather Roundup
Issued by NWS Portland, ME

Current Version | Previous Version | Text Only | Print | Product List | Glossary On
Versions: 1 2 3 4 5 6 7 8 9 10 11 12 13 14 15 16 17 18 19 20 21 22 23 24 25 26 27 28 29 30 31 32 33 34 35 36 37 38 39 40 41 42 43 44 45 46 47 48 49 50
000
ASUS41 KGYX 300310
RWRGYX
WEATHER ROUNDUP FOR MAINE AND NEW HAMPSHIRE
NATIONAL WEATHER SERVICE GRAY ME
1100 PM EDT MON JUN 29 2015

MEZ002-005-006-010-012-015-018-020-021-024-026-027-029-300400-
MAINE

CITY           SKY/WX    TMP DP  RH WIND       PRES   REMARKS
PORTLAND       CLOUDY    62  60  93 CALM      29.90R
SANFORD        MOCLDY    57  54  88 CALM      29.91S
BAR HARBOR     CLOUDY    55  55 100 S7        29.90S
WISCASSET      CLOUDY    58  57  97 CALM      29.91S
ROCKLAND       PTCLDY    55  54  94 CALM      29.89F
FRYEBURG       CLOUDY    63  60  90 CALM      29.90S
LEWISTONAUBURN CLOUDY    61  55  82 CALM      29.90S
AUGUSTA        CLOUDY    61  57  87 VRB3      29.90R
BANGOR         CLOUDY    59  56  89 S6        29.89R
GREENVILLE       N/A     54  49  83 CALM      29.87S
MILLINOCKET    CLEAR     56  53  90 CALM      29.88R
HOULTON        CLEAR     54  52  93 S5        29.84R
PRESQUE ISLE   CLOUDY    57  52  82 W6        29.84S
FRENCHVILLE    CLOUDY    54  51  90 W10       29.83S
CARIBOU        CLOUDY    56  53  90 W5        29.83S
$$

NHZ002-005-008-009-011-012-014-300400-
NEW HAMPSHIRE

CITY           SKY/WX    TMP DP  RH WIND       PRES   REMARKS
PORTSMOUTH     PTCLDY    59  57  92 CALM      29.89R
ROCHESTER      CLOUDY    62  59  90 CALM      29.90R
NASHUA         PTCLDY    65  60  83 W5        29.92R
MANCHESTER     MOCLDY    66  58  75 CALM      29.90R
CONCORD        CLOUDY    65  59  81 CALM      29.91R
LACONIA        CLOUDY    63  57  82 CALM      29.91R
PLYMOUTH       CLOUDY    60  60 100 CALM      29.92R
BERLIN         CLOUDY    58  54  86 CALM      29.91R
WHITEFIELD     CLOUDY    60  56  86 SW3       29.92R
JAFFREY        MOCLDY    61  58  90 S6        29.95R
KEENE          MOCLDY    63  55  77 SW3       29.94R
LEBANON        CLOUDY    62  58  86 CALM      29.92R
MT WASHINGTON  DRZL/FOG  41  41 100 W30         N/A  VSB 1/16
$$

VTZ005-007-008-300400-
VERMONT

CITY           SKY/WX    TMP DP  RH WIND       PRES   REMARKS
ST JOHNSBURY     N/A     62  56  80 MISG      29.89S
MONTPELIER     CLOUDY    58  55  90 SW3       29.96R
BURLINGTON     CLOUDY    62  58  86 CALM      29.91R
$$

MAZ007-012-024-CTZ003-RIZ002-NYZ038-NYZ072-300400-
SOUTHERN NEW ENGLAND AND NY

CITY           SKY/WX    TMP DP  RH WIND       PRES   REMARKS
BOSTON         PTCLDY    67  60  78 SW9G20    29.93R
WORCESTER      MOCLDY    64  57  78 W8        29.95R
NANTUCKET      PTCLDY    64  61  90 SW7       29.96F
PROVIDENCE     PTCLDY    64  59  83 SW5       29.95R
HARTFORD       PTCLDY    62  58  86 CALM      29.93S
ALBANY         MOCLDY    62  57  83 SW3       29.95R
NEW YORK CITY  PTCLDY    74  55  51 S7        29.94R
$$

ANZ081-ANZ082-ANZ150-NHZ014-MEZ023>029-300400-
COASTAL MARINE OBSERVATIONS

STATION/POSITION TIME  TEMP    WIND        PRES    WAVE
                       AIR SEA DIR/SP/G            HT/PER
                 (UTC) (F)     (DEG/KT/KT) (MB)    (FT/S)
MOUNT DESERT ROC 0300   54     190/ 12/ 12 1013.1R
MATINICUS ROCK   0300   54     180/ 13/ 14 1012.5R
ISLE OF SHOALS   0300   67     220/ 14/ 15 1012.0R
JEFFREYS LEDGE   0203      57                N/A     5/ 9
CASHES LEDGE BUO 0250   58 55              1012.2R   4/ 9
GEORGES BANK BUO 0250   62 58  220/ 10/ 12 1016.0R   8/10
$$

.............KEY..............
   WCI - WIND CHILL
   TC  - TEMPERATURE IN CELSIUS
   VSB - VISIBILITY IN MILES
   HX  - HEAT INDEX
   FAIR- INDICATES FEW OR NO CLOUDS BELOW 12,000 FT, WITH NO
         SIGNIFICANT WEATHER AND/OR OBSTRUCTIONS TO VISIBILITY.




USA.gov is the U.S. government's official web portal to all federal, state and local government web resources and services.